Weerstation Grootegast  Weerstation Grootegast


15 daagse weersverwachting Naas, Leixlip (IE)

  • Overzicht
  • Per uur
  • 15 dagen
  • Extra
  • Vergelijk
  • Kaarten
  • Dagkaart
  • Meer »
  • Info
  • Statistieken
  • Directe link
    Temp 6h Neerslag Wind  
 04:59     21:56    Daglengte: 16:57 Vandaag
01:00
12°
 
4
07:00
11°
 
6
13:00
17°
 
7
19:00
16°
 
5
 04:59     21:57    Daglengte: 16:58 Morgen
01:00
11°
 
3
07:00
11°
 
3
13:00
17°
 
4
19:00
17°
 
3
 04:59     21:57    Daglengte: 16:58 Woensdag 19 Jun
01:00
11°
 
2
07:00
10°
 
3
13:00
17°
 
4
19:00
15°
5.5 mm
5
Locatie info
Region: Kildare
Latitude: 53.3644°N
Longitude: -6.4876°E
48 masl
Postcode: -1
Temp/Neerslag /Baro Onweer/Dauwpunt
    Temp Baro 1h Neerslag Dauwpunt Wind UV Bewolking  
 04:59     21:56    Daglengte: 16:57 Vandaag
01:00
12°
1008.7 hPa
49%
9.1°
4
Windvlaag: 3.8 m/s
63%
02:00
11°
1009.1 hPa
14%
9.0°
5
Windvlaag: 4.5 m/s
17%
03:00
11°
1009.3 hPa
14%
8.7°
5
Windvlaag: 5 m/s
20%
04:00
10°
1009.3 hPa
14%
8.7°
5
Windvlaag: 5 m/s
14%
05:00
10°
1009.4 hPa
14%
8.7°
5
Windvlaag: 5 m/s
11%
06:00
10°
1009.6 hPa
14%
8.8°
5
Windvlaag: 4.9 m/s
8%
07:00
11°
1009.7 hPa
14%
8.9°
6
Windvlaag: 4.9 m/s
14%
08:00
12°
1009.8 hPa
14%
9.2°
6
Windvlaag: 5.3 m/s
32%
09:00
14°
1010.0 hPa
14%
8.9°
7
Windvlaag: 5.1 m/s
52%
10:00
15°
1010.3 hPa
17%
8.5°
7
Windvlaag: 5 m/s
33%
11:00
16°
1010.2 hPa
24%
8.1°
7
Windvlaag: 5 m/s
35%
12:00
16°
1010.3 hPa
61%
7.9°
7
Windvlaag: 5 m/s
33%
13:00
17°
1010.3 hPa
67%
7.6°
7
Windvlaag: 4.9 m/s
43%
14:00
17°
1010.5 hPa
76%
7.6°
7
Windvlaag: 4.4 m/s
31%
15:00
17°
1010.4 hPa
74%
7.6°
7
Windvlaag: 4.3 m/s
37%
16:00
17°
1010.4 hPa
67%
7.9°
7
Windvlaag: 4.2 m/s
30%
17:00
17°
1010.4 hPa
67%
7.9°
6
Windvlaag: 4.1 m/s
42%
18:00
17°
1010.5 hPa
24%
7.8°
6
Windvlaag: 3.8 m/s
46%
19:00
16°
1010.7 hPa
56%
8.1°
5
Windvlaag: 3.6 m/s
33%
20:00
16°
1011.0 hPa
21%
8.8°
4
Windvlaag: 2.7 m/s
37%
21:00
15°
1011.4 hPa
21%
9.2°
3
Windvlaag: 1.4 m/s
36%
22:00
14°
1011.9 hPa
50%
8.9°
3
Windvlaag: 1.2 m/s
37%
23:00
13°
1012.3 hPa
17%
8.7°
3
Windvlaag: 1.3 m/s
34%
 04:59     21:57    Daglengte: 16:58 Morgen
00:00
12°
1012.4 hPa
17%
8.7°
3
Windvlaag: 1.9 m/s
26%
01:00
11°
1012.6 hPa
17%
8.6°
3
Windvlaag: 2.4 m/s
6%
02:00
11°
1012.6 hPa
17%
8.6°
3
Windvlaag: 2.5 m/s
4%
03:00
10°
1012.5 hPa
14%
8.5°
3
Windvlaag: 2.5 m/s
4%
04:00
10°
Voelt als: 8.3°
1012.5 hPa
14%
8.2°
3
Windvlaag: 2.4 m/s
16%
05:00
10°
Voelt als: 8.0°
1012.5 hPa
14%
8.1°
3
Windvlaag: 2.5 m/s
23%
06:00
10°
Voelt als: 8.3°
1012.6 hPa
14%
8.3°
3
Windvlaag: 2.4 m/s
30%
07:00
11°
1012.8 hPa
14%
8.8°
3
Windvlaag: 2.3 m/s
21%
08:00
12°
1013.0 hPa
14%
8.9°
4
Windvlaag: 2.4 m/s
19%
09:00
13°
1013.1 hPa
14%
8.4°
4
Windvlaag: 2.2 m/s
28%
10:00
14°
1013.0 hPa
14%
7.9°
4
Windvlaag: 2.3 m/s
20%
11:00
15°
1012.9 hPa
14%
7.5°
4
Windvlaag: 2.3 m/s
16%
12:00
16°
1012.7 hPa
14%
7.4°
4
Windvlaag: 2.3 m/s
17%
13:00
17°
1012.3 hPa
14%
7.2°
4
Windvlaag: 2 m/s
20%
14:00
17°
1012.1 hPa
14%
6.9°
3
Windvlaag: 1.7 m/s
28%
15:00
18°
1011.5 hPa
14%
6.8°
3
Windvlaag: 1.7 m/s
58%
16:00
18°
1011.1 hPa
14%
7.1°
3
Windvlaag: 1.6 m/s
54%
17:00
18°
1010.8 hPa
14%
7.0°
3
Windvlaag: 1.5 m/s
60%
18:00
18°
1010.6 hPa
14%
7.0°
3
Windvlaag: 1.5 m/s
72%
19:00
17°
1010.5 hPa
14%
7.3°
3
Windvlaag: 0.9 m/s
79%
20:00
17°
1010.4 hPa
14%
7.9°
2
Windvlaag: 0.1 m/s
58%
21:00
16°
1010.6 hPa
15%
8.9°
2
Windvlaag: -0.1 m/s
71%
22:00
13°
1010.7 hPa
25%
9.7°
3
Windvlaag: -0 m/s
64%
23:00
12°
1010.7 hPa
21%
9.7°
2
Windvlaag: -0 m/s
39%
 04:59     21:57    Daglengte: 16:58 Woensdag 19 Jun
00:00
12°
1010.5 hPa
21%
9.4°
2
Windvlaag: 0.3 m/s
54%
01:00
11°
1010.3 hPa
22%
9.5°
2
Windvlaag: 0.9 m/s
51%
02:00
10°
1010.0 hPa
21%
9.0°
2
Windvlaag: 0.7 m/s
55%
03:00
10°
1009.6 hPa
21%
9.2°
2
Windvlaag: 0.9 m/s
74%
04:00
10°
Voelt als: 8.7°
1009.5 hPa
21%
8.9°
2
Windvlaag: 0.8 m/s
61%
05:00
Voelt als: 8.1°
1009.4 hPa
21%
8.6°
3
Windvlaag: 0.8 m/s
62%
06:00
10°
Voelt als: 8.3°
1009.3 hPa
22%
8.9°
3
Windvlaag: 0.8 m/s
50%
07:00
10°
1009.3 hPa
30%
9.1°
3
Windvlaag: 0.9 m/s
72%
08:00
12°
1008.9 hPa
30%
9.3°
3
Windvlaag: 0.8 m/s
54%
09:00
13°
1008.8 hPa
23%
9.0°
4
Windvlaag: 0.8 m/s
14%
10:00
14°
1008.5 hPa
22%
8.5°
4
Windvlaag: 0.7 m/s
32%
11:00
15°
1008.3 hPa
21%
7.9°
4
Windvlaag: 0.9 m/s
17%
12:00
16°
1008.0 hPa
21%
6.7°
4
Windvlaag: 1 m/s
58%
13:00
17°
1007.8 hPa
21%
7.1°
4
Windvlaag: 0.9 m/s
71%
14:00
17°
1007.5 hPa
25%
8.3°
5
Windvlaag: 1 m/s
56%
15:00
17°
1007.5 hPa
49%
8.3°
5
Windvlaag: 1 m/s
45%
16:00
17°
1007.4 hPa
100%
8.3°
5
Windvlaag: 1.1 m/s
39%
17:00
16°
1007.4 hPa 2.0 mm
100%
8.5°
5
Windvlaag: 1.2 m/s
62%
18:00
16°
1007.3 hPa 1.5 mm
100%
8.9°
5
Windvlaag: 1.2 m/s
51%
19:00
15°
1007.4 hPa 2.0 mm
100%
8.7°
5
Windvlaag: 1.2 m/s
54%
20:00
14°
1007.6 hPa
100%
8.7°
5
Windvlaag: 8.2 m/s
71%
21:00
14°
1008.0 hPa
89%
8.7°
5
Windvlaag: 9 m/s
55%
22:00
13°
1008.2 hPa
27%
8.4°
4
Windvlaag: 6.1 m/s
68%
23:00
12°
1008.5 hPa
24%
8.2°
4
Windvlaag: 9.8 m/s
81%
 04:59     21:57    Daglengte: 16:58 Donderdag 20 Jun
00:00
11°
1008.6 hPa
23%
8.2°
4
Windvlaag: 10 m/s
70%
Temp/Neerslag /Baro Onweer/Dauwpunt
    Temp Baro Neerslag Dauwpunt Wind Bewolking  
 04:59     21:56    Daglengte: 16:57 Vandaag
01:00
12°
1008.7 hPa   9.1°
4
63%
04:00
10°
1009.3 hPa   8.7°
5
14%
07:00
11°
1009.7 hPa   8.9°
6
14%
10:00
15°
1010.3 hPa   8.5°
7
33%
13:00
17°
1010.3 hPa   7.6°
7
43%
16:00
17°
1010.4 hPa   7.9°
7
30%
19:00
16°
1010.7 hPa   8.1°
5
33%
22:00
14°
1011.9 hPa   8.9°
3
37%
 04:59     21:57    Daglengte: 16:58 Morgen
01:00
11°
1012.6 hPa   8.6°
3
6%
04:00
10°
Voelt als: 8.3°
1012.5 hPa   8.2°
3
16%
07:00
11°
1012.8 hPa   8.8°
3
21%
10:00
14°
1013.0 hPa   7.9°
4
20%
13:00
17°
1012.3 hPa   7.2°
4
20%
16:00
18°
1011.1 hPa   7.1°
3
54%
19:00
17°
1010.5 hPa   7.3°
3
79%
22:00
13°
1010.7 hPa   9.7°
3
64%
 04:59     21:57    Daglengte: 16:58 Woensdag 19 Jun
01:00
11°
1010.3 hPa   9.5°
2
51%
04:00
10°
Voelt als: 8.7°
1009.5 hPa   8.9°
2
61%
07:00
10°
1009.3 hPa   9.1°
3
72%
10:00
14°
1008.5 hPa   8.5°
4
32%
13:00
17°
1007.8 hPa   7.1°
4
71%
16:00
17°
1007.4 hPa   8.3°
5
39%
19:00
15°
1007.4 hPa 5.5 mm 8.7°
5
54%
22:00
13°
1008.2 hPa   8.4°
4
68%
 04:59     21:57    Daglengte: 16:58 Donderdag 20 Jun
01:00
11°
1008.7 hPa   8.1°
4
75%
04:00
10°
1009.5 hPa 10.5 mm 8.0°
4
58%
07:00
10°
1009.7 hPa 10.7 mm 8.0°
4
44%
10:00
12°
1010.4 hPa 10.9 mm 7.8°
5
43%
13:00
15°
1011.0 hPa 11.2 mm 6.9°
5
41%
16:00
14°
1011.7 hPa 12.7 mm 6.8°
5
44%
19:00
14°
1012.4 hPa 14.5 mm 6.6°
4
47%
22:00
12°
1013.7 hPa 15.3 mm 6.9°
4
42%
 04:59     21:58    Daglengte: 16:59 Vrijdag 21 Jun
01:00
10°
Voelt als: 8.0°
1015.0 hPa 15.3 mm 6.8°
3
37%
04:00
Voelt als: 7.4°
1015.8 hPa 15.3 mm 6.9°
3
24%
07:00
Voelt als: 7.2°
1016.6 hPa 15.3 mm 7.1°
3
11%
10:00
12°
1017.3 hPa 15.3 mm 6.8°
4
42%
13:00
15°
1018.0 hPa 15.5 mm 5.2°
4
73%
16:00
16°
1018.1 hPa 15.8 mm 5.2°
3
62%
19:00
16°
1018.1 hPa 16.7 mm 5.5°
2
52%
22:00
13°
1018.8 hPa 16.9 mm 6.3°
2
62%
 05:00     21:58    Daglengte: 16:58 Zaterdag 22 Jun
01:00
11°
1019.4 hPa 17.0 mm 6.4°
2
73%
04:00
11°
1019.3 hPa 17.0 mm 8.5°
2
78%
07:00
12°
1019.1 hPa 17.0 mm 10.5°
2
83%
10:00
15°
1018.9 hPa 17.2 mm 10.2°
2
86%
13:00
18°
1018.6 hPa 17.5 mm 8.7°
3
90%
16:00
17°
1018.1 hPa 17.6 mm 8.1°
3
89%
19:00
16°
1017.7 hPa 17.7 mm 7.3°
3
88%
22:00
13°
1017.7 hPa 17.7 mm 8.3°
3
89%
 05:00     21:58    Daglengte: 16:58 Zondag 23 Jun
01:00
10°
1017.7 hPa 17.7 mm 8.5°
2
90%
04:00
12°
1016.7 hPa 17.7 mm 9.8°
3
91%
07:00
13°
1015.7 hPa 17.7 mm 11.1°
4
91%
10:00
14°
1015.9 hPa 17.7 mm 11.1°
4
91%
13:00
15°
1016.1 hPa 17.9 mm 11.1°
5
92%
16:00
14°
1015.7 hPa 17.9 mm 11.9°
5
91%
19:00
14°
1015.3 hPa 17.9 mm 12.7°
4
91%
22:00
13°
1015.7 hPa   12.1°
4
73%
 05:00     21:58    Daglengte: 16:58 Maandag 24 Jun
01:00
12°
1015.9 hPa 35.9 mm 11.7°
4
56%
07:00
13°
1016.0 hPa 35.9 mm 12.2°
2
92%
13:00
16°
1017.7 hPa 35.9 mm 13.8°
4
68%
19:00
15°
1019.5 hPa 35.9 mm 12.3°
4
91%
 05:01     21:58    Daglengte: 16:57 Dinsdag 25 Jun
01:00
12°
1022.1 hPa 35.9 mm 10.1°
3
35%
07:00
12°
1024.8 hPa 35.9 mm 9.9°
3
39%
13:00
17°
1026.6 hPa 36.1 mm 7.1°
5
40%
19:00
16°
1027.3 hPa 38.2 mm 8.2°
3
10%
 05:01     21:58    Daglengte: 16:57 Woensdag 26 Jun
01:00
11°
1029.5 hPa 41.5 mm 8.6°
3
9%
07:00
10°
1029.6 hPa 41.6 mm 8.8°
1
24%
13:00
18°
1028.5 hPa 42.9 mm 8.6°
3
32%
19:00
17°
1021.7 hPa 0.9 mm 12.9°
1
49%
 05:02     21:58    Daglengte: 16:56 Donderdag 27 Jun
01:00
12°
1021.1 hPa 1.4 mm 10.9°
1
52%
07:00
12°
1019.2 hPa 1.0 mm 10.7°
2
59%
13:00
17°
1018.3 hPa 0.9 mm 12.3°
2
56%
19:00
17°
1016.9 hPa 1.5 mm 12.7°
2
53%
 05:02     21:58    Daglengte: 16:56 Vrijdag 28 Jun
01:00
12°
1017.0 hPa 0.8 mm 10.2°
2
46%
07:00
11°
1016.2 hPa 0.4 mm 10.2°
2
39%
13:00
16°
1016.4 hPa 0.4 mm 11.9°
2
53%
19:00
16°
1015.9 hPa 0.8 mm 11.9°
2
60%
 05:03     21:57    Daglengte: 16:54 Zaterdag 29 Jun
01:00
11°
1016.3 hPa 0.5 mm 9.3°
2
39%
07:00
11°
1015.5 hPa 0.2 mm 10.1°
2
42%
13:00
16°
1015.4 hPa 1.0 mm 11.6°
2
61%
19:00
16°
1014.7 hPa 1.5 mm 11.7°
2
63%
 05:04     21:57    Daglengte: 16:53 Zondag 30 Jun
01:00
11°
1015.1 hPa 0.8 mm 9.5°
2
51%
07:00
11°
1014.5 hPa 0.5 mm 9.8°
2
49%
13:00
16°
1014.8 hPa 0.7 mm 11.8°
2
64%
19:00
16°
1014.5 hPa 1.1 mm 12.5°
2
70%
 05:04     21:57    Daglengte: 16:53 Maandag 01 Jul
01:00
11°
1015.1 hPa 0.8 mm 9.9°
2
53%
07:00
11°
1014.8 hPa 0.7 mm 10.2°
2
49%
13:00
16°
1015.0 hPa 0.6 mm 11.6°
2
64%
19:00
16°
1014.3 hPa 1.0 mm 12.5°
2
75%
  CAPE Lifted Index Hail Supercell Tornado SRH 3km CL BTM PRES CL TOP PRES Swiss DWD icon SMHI TS
 04:59     21:56    Daglengte: 16:57 Vandaag
01:00 97 J/kg 3.0 K 0 % 0 % 0 % 0 m²/s² 0 0 7.38 3
02:00 43 J/kg 3.7 K 0 % 0 % 0 % 0 m²/s² 0 0 7.66 3
03:00 0 J/kg 4.4 K 0 % 0 % 0 % 0 m²/s² 0 0 7.97 3
04:00 0 J/kg 4.5 K 0 % 0 % 0 % 0 m²/s² 0 0 8.85 3
05:00 0 J/kg 4.5 K 0 % 0 % 0 % 0 m²/s² 0 0 9.72 3
06:00 0 J/kg 4.4 K 0 % 0 % 0 % 0 m²/s² 0 0 9.38 2
07:00 15 J/kg 3.9 K 0 % 0 % 0 % 0 m²/s² 0 0 8.4 2
08:00 51 J/kg 3.3 K 0 % 0 % 0 % 0 m²/s² 0 0 7.56 2
09:00 81 J/kg 2.5 K 0 % 0 % 0 % 0 m²/s² 0 0 6.25 2
10:00 96 J/kg 2.0 K 0 % 0 % 0 % 0 m²/s² 0 0 5.21 2
11:00 133 J/kg 1.6 K 0 % 0 % 0 % 0 m²/s² 0 0 4.99 3
12:00 136 J/kg 1.5 K 0 % 0 % 0 % 0 m²/s² 0 0 5.46 2
13:00 150 J/kg 1.2 K 0 % 0 % 0 % 0 m²/s² 0 0 5.04 3
14:00 173 J/kg 1.1 K 0 % 0 % 0 % 0 m²/s² 0 0 4.58 1
15:00 201 J/kg 0.9 K 0 % 0 % 0 % 0 m²/s² 0 0 4.2 2
16:00 213 J/kg 0.7 K 0 % 0 % 0 % 0 m²/s² 0 0 3.64 2
17:00 246 J/kg 0.2 K 0 % 0 % 0 % 0 m²/s² 0 0 2.99 3
18:00 294 J/kg -0.2 K 0 % 0 % 0 % 0 m²/s² 0 0 2.08 2
19:00 239 J/kg 0.2 K 0 % 0 % 0 % 0 m²/s² 0 0 2.99 2
20:00 202 J/kg 0.5 K 0 % 0 % 0 % 0 m²/s² 0 0 3.62 1
21:00 145 J/kg 1.0 K 0 % 0 % 0 % 0 m²/s² 0 0 5.05 3
22:00 105 J/kg 1.4 K 0 % 0 % 0 % 0 m²/s² 0 0 5.9 3
23:00 39 J/kg 2.3 K 0 % 0 % 0 % 0 m²/s² 0 0 7.07 3
 04:59     21:57    Daglengte: 16:58 Morgen
00:00 1 J/kg 3.2 K 0 % 0 % 0 % 0 m²/s² 0 0 7.97 3
01:00 0 J/kg 3.5 K 0 % 0 % 0 % 0 m²/s² 0 0 8.27 2
02:00 0 J/kg 4.2 K 0 % 0 % 0 % 0 m²/s² 0 0 9.09 2
03:00 0 J/kg 4.8 K 0 % 0 % 0 % 0 m²/s² 0 0 9.84 2
04:00 0 J/kg 6.1 K 0 % 0 % 0 % 0 m²/s² 0 0 11.41 2
05:00 0 J/kg 6.4 K 0 % 0 % 0 % 0 m²/s² 0 0 11.86 2
06:00 0 J/kg 7.1 K 0 % 0 % 0 % 0 m²/s² 0 0 12.56 3
07:00 0 J/kg 7.6 K 0 % 0 % 0 % 0 m²/s² 0 0 13.39 2
08:00 0 J/kg 7.4 K 0 % 0 % 0 % 0 m²/s² 0 0 13.01 1
09:00 0 J/kg 7.5 K 0 % 0 % 0 % 0 m²/s² 0 0 12.96 1
10:00 0 J/kg 7.7 K 0 % 0 % 0 % 0 m²/s² 0 0 13.31 2
11:00 0 J/kg 7.6 K 0 % 0 % 0 % 0 m²/s² 0 0 12.94 0
12:00 2 J/kg 7.3 K 0 % 0 % 0 % 0 m²/s² 0 0 11.89 0
13:00 6 J/kg 7.2 K 0 % 0 % 0 % 0 m²/s² 0 0 10.95 0
14:00 12 J/kg 6.8 K 0 % 0 % 0 % 0 m²/s² 0 0 9.74 0
15:00 27 J/kg 6.0 K 0 % 0 % 0 % 0 m²/s² 0 0 8.43 3
16:00 32 J/kg 5.4 K 0 % 0 % 0 % 0 m²/s² 0 0 7.47 1
17:00 31 J/kg 5.3 K 0 % 0 % 0 % 0 m²/s² 0 0 7.13 2
18:00 60 J/kg 4.6 K 0 % 0 % 0 % 0 m²/s² 0 0 6.31 3
19:00 50 J/kg 4.3 K 0 % 0 % 0 % 0 m²/s² 0 0 5.83 3
20:00 64 J/kg 3.9 K 0 % 0 % 0 % 0 m²/s² 0 0 5.43 1
21:00 82 J/kg 3.4 K 0 % 0 % 0 % 0 m²/s² 0 0 4.93 2
22:00 65 J/kg 3.4 K 0 % 0 % 0 % 0 m²/s² 0 0 5.11 3
23:00 82 J/kg 3.4 K 0 % 0 % 0 % 0 m²/s² 0 0 5.2 3
 04:59     21:57    Daglengte: 16:58 Woensdag 19 Jun
00:00 38 J/kg 3.9 K 0 % 0 % 0 % 0 m²/s² 0 0 5.85 3
01:00 0 J/kg 5.1 K 0 % 0 % 0 % 0 m²/s² 0 0 6.99 3
02:00 0 J/kg 5.1 K 0 % 0 % 0 % 0 m²/s² 0 0 6.45 3
03:00 0 J/kg 5.9 K 0 % 0 % 0 % 0 m²/s² 0 0 7.25 3
04:00 0 J/kg 6.2 K 0 % 0 % 0 % 0 m²/s² 0 0 7.73 3
05:00 0 J/kg 6.3 K 0 % 0 % 0 % 0 m²/s² 0 0 8.49 3
06:00 0 J/kg 6.4 K 0 % 0 % 0 % 0 m²/s² 0 0 10.03 3
07:00 0 J/kg 6.2 K 0 % 0 % 0 % 0 m²/s² 0 0 10.31 3
08:00 1 J/kg 6.9 K 0 % 0 % 0 % 0 m²/s² 0 0 11.55 3
09:00 1 J/kg 7.2 K 0 % 0 % 0 % 0 m²/s² 0 0 11.85 3
10:00 9 J/kg 6.5 K 0 % 0 % 0 % 0 m²/s² 0 0 11.27 3
11:00 15 J/kg 6.0 K 0 % 0 % 0 % 0 m²/s² 0 0 11.31 1
12:00 21 J/kg 5.8 K 0 % 0 % 0 % 0 m²/s² 0 0 11.26 2
13:00 54 J/kg 4.9 K 0 % 0 % 0 % 0 m²/s² 0 0 9.31 3
14:00 102 J/kg 3.5 K 0 % 0 % 0 % 0 m²/s² 0 0 6.83 1
15:00 106 J/kg 3.2 K 0 % 0 % 0 % 0 m²/s² 0 0 6.11 2
16:00 117 J/kg 3.1 K 0 % 0 % 0 % 0 m²/s² 0 0 5.08 2
17:00 110 J/kg 3.6 K 0 % 0 % 0 % 0 m²/s² 0 0 5.64 2
18:00 75 J/kg 4.4 K 0 % 0 % 0 % 0 m²/s² 0 0 6.14 80
19:00 83 J/kg 4.2 K 0 % 0 % 0 % 0 m²/s² 0 0 5.7 80
20:00 69 J/kg 4.4 K 0 % 0 % 0 % 0 m²/s² 0 0 5.84 3
21:00 40 J/kg 4.8 K 0 % 0 % 0 % 0 m²/s² 0 0 6.36 2
22:00 17 J/kg 5.4 K 0 % 0 % 0 % 0 m²/s² 0 0 7.02 2
23:00 3 J/kg 5.7 K 0 % 0 % 0 % 0 m²/s² 0 0 7.2 3
 04:59     21:57    Daglengte: 16:58 Donderdag 20 Jun
00:00 0 J/kg 6.0 K 0 % 0 % 0 % 0 m²/s² 0 0 7.5 3
Temp Baro Wind Neerslag
  EWN Forecast EWN WRFDA DWD ICON FMI HIRLAM MET Norway GFS
 04:59     21:56    Daglengte: 16:57 Vandaag
01:00 11.5° 1008.7 hPa 4.3 m/s 0.0 mm 12.4° 1008.0 hPa 4.1 m/s 4.6 mm 11.6° 1009.2 hPa 4.0 m/s -1.3 mm 13.3° 1008.4 hPa 2.8 m/s 0.0 mm 11.0° 1008.6 hPa 4.5 m/s 0.0 mm 9.8° 1009.3 hPa 4.0 m/s
04:00 10.4° 1009.3 hPa 5.1 m/s 0.0 mm 9.7° 1008.5 hPa 4.1 m/s 14.0 mm 10.6° 1009.2 hPa 4.9 m/s 0.0 mm 12.3° 1009.4 hPa 5.5 m/s 0.0 mm 9.9° 1009.1 hPa 4.7 m/s 0.0 mm 8.7° 1009.6 hPa 4.9 m/s
07:00 11.4° 1009.7 hPa 5.6 m/s 0.0 mm 12.0° 1008.5 hPa 5.8 m/s 14.0 mm 11.5° 1009.5 hPa 5.8 m/s 0.0 mm 12.4° 1010.3 hPa 5.4 m/s 0.0 mm 11.1° 1009.6 hPa 4.6 m/s 0.0 mm 10.2° 1009.6 hPa 5.6 m/s
10:00 14.6° 1010.3 hPa 6.9 m/s 0.0 mm 14.7° 1009.1 hPa 7.3 m/s 14.0 mm 14.7° 1010.5 hPa 8.3 m/s 0.0 mm 15.1° 1010.4 hPa 5.4 m/s 0.0 mm 14.5° 1009.8 hPa 6.6 m/s 0.0 mm 13.9° 1010.2 hPa 7.2 m/s
13:00 16.7° 1010.3 hPa 7.1 m/s 0.0 mm 16.7° 1009.2 hPa 7.7 m/s 14.0 mm 17.1° 1010.3 hPa 9.1 m/s 0.1 mm 16.6° 1010.5 hPa 5.7 m/s 0.0 mm 16.9° 1010.2 hPa 6.7 m/s 0.0 mm 16.3° 1010.4 hPa 8.0 m/s
16:00 17.5° 1010.4 hPa 6.6 m/s 0.0 mm 17.6° 1009.4 hPa 7.1 m/s 14.0 mm 17.7° 1010.4 hPa 8.1 m/s 0.1 mm 16.7° 1010.6 hPa 5.0 m/s 0.0 mm 17.6° 1010.3 hPa 6.1 m/s 0.0 mm 16.2° 1010.8 hPa 6.7 m/s
19:00 16.4° 1010.7 hPa 5.0 m/s 0.0 mm 17.0° 1009.6 hPa 5.7 m/s 15.1 mm 16.8° 1010.6 hPa 6.6 m/s 0.0 mm 16.5° 1010.9 hPa 5.0 m/s 0.0 mm 16.5° 1010.8 hPa 4.3 m/s 0.0 mm 15.1° 1011.3 hPa 4.8 m/s
22:00 13.6° 1011.9 hPa 2.8 m/s 0.0 mm 14.6° 1010.7 hPa 3.2 m/s 16.4 mm 13.5° 1012.1 hPa 2.5 m/s 0.0 mm 15.8° 1012.0 hPa 3.4 m/s 0.0 mm 13.2° 1011.9 hPa 2.6 m/s 0.0 mm 10.8° 1012.5 hPa 2.7 m/s
 04:59     21:57    Daglengte: 16:58 Morgen
01:00 11.3° 1012.6 hPa 3.1 m/s 0.0 mm 10.9° 1011.7 hPa 3.6 m/s 16.5 mm 11.1° 1012.6 hPa 3.0 m/s 0.0 mm 14.5° 1012.5 hPa 2.4 m/s 0.0 mm 11.0° 1012.6 hPa 3.1 m/s 0.0 mm 9.1° 1013.0 hPa 3.3 m/s
04:00 9.9° 1012.5 hPa 3.1 m/s 0.0 mm 9.5° 1011.0 hPa 3.9 m/s 16.5 mm 9.8° 1012.7 hPa 3.4 m/s 0.0 mm 14.0° 1012.6 hPa 1.5 m/s 0.0 mm 9.4° 1012.5 hPa 2.9 m/s 0.0 mm 8.2° 1012.5 hPa 3.4 m/s
07:00 10.9° 1012.8 hPa 3.3 m/s 0.0 mm 10.2° 1011.3 hPa 4.0 m/s 16.5 mm 10.7° 1012.8 hPa 4.6 m/s 0.0 mm 13.8° 1013.0 hPa 1.5 m/s 0.0 mm 10.7° 1012.8 hPa 2.7 m/s 0.0 mm 9.3° 1012.6 hPa 3.8 m/s
10:00 14.0° 1013.0 hPa 3.8 m/s 0.0 mm 13.5° 1011.7 hPa 3.6 m/s 16.5 mm 13.8° 1013.1 hPa 5.4 m/s 0.0 mm 14.8° 1013.4 hPa 2.9 m/s 0.0 mm 14.4° 1012.7 hPa 3.6 m/s 0.0 mm 13.5° 1012.8 hPa 4.2 m/s
13:00 16.6° 1012.3 hPa 3.5 m/s 0.0 mm 16.7° 1010.8 hPa 2.6 m/s 16.5 mm 16.6° 1012.3 hPa 4.4 m/s 0.0 mm 16.5° 1013.1 hPa 3.1 m/s 0.0 mm 16.6° 1012.1 hPa 3.6 m/s 0.0 mm 16.4° 1012.3 hPa 3.6 m/s
16:00 18.1° 1011.1 hPa 3.0 m/s 0.0 mm 18.3° 1009.6 hPa 1.7 m/s 16.5 mm 18.2° 1011.0 hPa 4.3 m/s 0.0 mm 17.3° 1012.8 hPa 2.5 m/s 0.0 mm 18.2° 1010.9 hPa 3.4 m/s 0.0 mm 17.3° 1011.4 hPa 3.4 m/s
19:00 17.4° 1010.5 hPa 2.5 m/s 0.0 mm 17.8° 1008.9 hPa 1.4 m/s 16.5 mm 18.0° 1010.4 hPa 2.3 m/s 0.0 mm 17.3° 1012.6 hPa 2.3 m/s 0.0 mm 17.4° 1010.1 hPa 3.4 m/s 0.0 mm 16.4° 1010.7 hPa 3.3 m/s
22:00 13.4° 1010.7 hPa 2.6 m/s 0.0 mm 15.7° 1008.8 hPa 2.7 m/s 16.5 mm 14.2° 1010.4 hPa 2.8 m/s 0.0 mm 13.0° 1010.9 hPa 2.1 m/s 0.0 mm 12.5° 1011.2 hPa 1.2 m/s
 04:59     21:57    Daglengte: 16:58 Woensdag 19 Jun
01:00 11.0° 1010.3 hPa 2.3 m/s 0.0 mm 11.2° 1007.7 hPa 3.0 m/s 16.5 mm 11.7° 1009.8 hPa 2.3 m/s 0.0 mm 10.7° 1010.5 hPa 1.6 m/s 0.0 mm 11.6° 1010.4 hPa 1.5 m/s
04:00 9.8° 1009.5 hPa 2.5 m/s 0.0 mm 10.6° 1007.5 hPa 2.2 m/s 16.6 mm 10.5° 1009.1 hPa 2.4 m/s 0.0 mm 9.0° 1009.6 hPa 2.1 m/s 0.0 mm 10.0° 1009.4 hPa 2.1 m/s
07:00 10.5° 1009.3 hPa 2.8 m/s 0.0 mm 10.8° 1007.3 hPa 2.3 m/s 16.7 mm 11.0° 1008.9 hPa 2.5 m/s 0.0 mm 10.4° 1009.4 hPa 2.7 m/s 0.0 mm 10.4° 1008.6 hPa 2.7 m/s
10:00 14.4° 1008.5 hPa 3.7 m/s 0.0 mm 14.2° 1007.0 hPa 4.0 m/s 16.8 mm 14.2° 1008.6 hPa 4.1 m/s 0.0 mm 14.5° 1008.8 hPa 3.4 m/s 0.0 mm 12.9° 1008.8 hPa 3.2 m/s
13:00 17.0° 1007.8 hPa 4.3 m/s 0.0 mm 16.1° 1006.8 hPa 4.7 m/s 16.8 mm 17.4° 1007.5 hPa 4.4 m/s 0.0 mm 17.0° 1008.2 hPa 4.1 m/s 0.0 mm 16.4° 1008.4 hPa 4.0 m/s
16:00 16.7° 1007.4 hPa 5.4 m/s 0.0 mm 17.3° 1005.9 hPa 5.6 m/s 16.8 mm 17.1° 1007.1 hPa 6.1 m/s 0.1 mm 16.2° 1007.9 hPa 5.1 m/s 0.0 mm 14.7° 1007.7 hPa 4.4 m/s
19:00 15.1° 1007.4 hPa 5.2 m/s 5.5 mm 16.5° 1005.9 hPa 6.4 m/s 16.8 mm 15.2° 1007.3 hPa 5.6 m/s 1.1 mm 14.8° 1007.8 hPa 4.6 m/s 0.0 mm 13.5° 1007.7 hPa 4.4 m/s
22:00 12.6° 1008.2 hPa 4.2 m/s 0.0 mm 12.5° 1007.2 hPa 4.4 m/s 16.8 mm 12.5° 1008.1 hPa 4.0 m/s 0.1 mm 12.7° 1008.5 hPa 4.2 m/s 10.3° 1008.9 hPa 4.1 m/s
 04:59     21:57    Daglengte: 16:58 Donderdag 20 Jun
01:00 10.6° 1008.7 hPa 4.0 m/s 0.0 mm 10.0° 1006.9 hPa 5.3 m/s 16.8 mm 10.9° 1008.6 hPa 3.9 m/s 0.0 mm 10.6° 1009.2 hPa 3.8 m/s 7.8° 1008.6 hPa 3.8 m/s
04:00 10.1° 1009.5 hPa 4.3 m/s 10.5 mm 10.3° 1009.6 hPa 4.2 m/s 8.5° 1008.6 hPa 4.8 m/s 10.5 mm
07:00 10.0° 1009.7 hPa 4.4 m/s 10.7 mm 10.1° 1009.8 hPa 4.4 m/s 8.9° 1008.6 hPa 4.8 m/s 10.7 mm
10:00 12.5° 1010.4 hPa 4.8 m/s 10.9 mm 12.4° 1010.5 hPa 4.7 m/s 12.5° 1008.9 hPa 5.6 m/s 10.9 mm
13:00 14.8° 1011.0 hPa 5.1 m/s 11.2 mm 14.8° 1011.2 hPa 5.0 m/s 15.0° 1009.1 hPa 5.7 m/s 11.2 mm
16:00 14.4° 1011.7 hPa 4.7 m/s 12.7 mm 14.4° 1011.9 hPa 4.7 m/s 14.9° 1009.3 hPa 5.6 m/s 12.7 mm
19:00 13.8° 1012.4 hPa 4.3 m/s 14.5 mm 13.9° 1012.6 hPa 4.3 m/s 13.2° 1009.7 hPa 4.9 m/s 14.5 mm
22:00 11.7° 1013.7 hPa 3.7 m/s 15.3 mm 11.9° 1014.0 hPa 3.8 m/s 9.4° 1011.2 hPa 3.3 m/s 15.3 mm
 04:59     21:58    Daglengte: 16:59 Vrijdag 21 Jun
01:00 9.7° 1015.0 hPa 3.2 m/s 15.3 mm 9.9° 1015.3 hPa 3.2 m/s 7.0° 1012.2 hPa 3.2 m/s 15.3 mm
04:00 9.3° 1015.8 hPa 3.3 m/s 15.3 mm 9.6° 1016.0 hPa 3.4 m/s 5.6° 1013.2 hPa 3.0 m/s 15.3 mm
07:00 9.1° 1016.6 hPa 3.5 m/s 15.3 mm 9.3° 1016.8 hPa 3.5 m/s 7.2° 1014.2 hPa 3.2 m/s 15.3 mm
10:00 12.0° 1017.3 hPa 3.8 m/s 15.3 mm 12.0° 1017.5 hPa 3.9 m/s 11.6° 1015.6 hPa 3.2 m/s 15.3 mm
13:00 14.7° 1018.0 hPa 4.2 m/s 15.5 mm 14.7° 1018.2 hPa 4.2 m/s 14.9° 1016.1 hPa 3.6 m/s 15.5 mm
16:00 15.6° 1018.1 hPa 3.1 m/s 15.8 mm 15.5° 1018.2 hPa 3.0 m/s 15.9° 1016.5 hPa 3.2 m/s 15.8 mm
19:00 16.2° 1018.1 hPa 1.8 m/s 16.7 mm 16.4° 1018.2 hPa 1.9 m/s 13.7° 1016.8 hPa 0.6 m/s 16.7 mm
22:00 13.3° 1018.8 hPa 2.1 m/s 16.9 mm 13.7° 1018.9 hPa 2.2 m/s 9.4° 1018.1 hPa 0.9 m/s 16.9 mm
 05:00     21:58    Daglengte: 16:58 Zaterdag 22 Jun
01:00 10.8° 1019.4 hPa 2.4 m/s 17.0 mm 11.0° 1019.5 hPa 2.6 m/s 8.1° 1018.4 hPa 0.7 m/s 17.0 mm
04:00 11.5° 1019.3 hPa 2.1 m/s 17.0 mm 11.8° 1019.4 hPa 2.2 m/s 8.7° 1018.2 hPa 1.0 m/s 17.0 mm
07:00 12.4° 1019.1 hPa 1.7 m/s 17.0 mm 12.5° 1019.2 hPa 1.8 m/s 10.8° 1018.4 hPa 1.0 m/s 17.0 mm
10:00 15.1° 1018.9 hPa 2.4 m/s 17.2 mm 15.2° 1018.9 hPa 2.5 m/s 14.4° 1018.5 hPa 1.1 m/s 17.2 mm
13:00 17.8° 1018.6 hPa 3.3 m/s 17.5 mm 17.9° 1018.6 hPa 3.3 m/s 16.9° 1018.4 hPa 2.8 m/s 17.5 mm
16:00 16.9° 1018.1 hPa 3.4 m/s 17.6 mm 16.9° 1018.2 hPa 3.3 m/s 16.2° 1017.7 hPa 4.1 m/s 17.6 mm
19:00 15.9° 1017.7 hPa 3.3 m/s 17.7 mm 16.0° 1017.7 hPa 3.3 m/s 14.4° 1017.2 hPa 3.4 m/s 17.7 mm
22:00 12.9° 1017.7 hPa 2.8 m/s 17.7 mm 13.2° 1017.7 hPa 2.8 m/s 9.2° 1018.0 hPa 2.6 m/s 17.7 mm
 05:00     21:58    Daglengte: 16:58 Zondag 23 Jun
01:00 10.2° 1017.7 hPa 2.3 m/s 17.7 mm 10.4° 1017.7 hPa 2.3 m/s 8.3° 1017.9 hPa 1.9 m/s 17.7 mm
04:00 11.8° 1016.7 hPa 2.9 m/s 17.7 mm 11.9° 1016.6 hPa 3.0 m/s 9.7° 1017.3 hPa 2.6 m/s 17.7 mm
07:00 13.3° 1015.7 hPa 3.6 m/s 17.7 mm 13.5° 1015.5 hPa 3.6 m/s 11.4° 1017.8 hPa 3.3 m/s 17.7 mm
10:00 14.1° 1015.9 hPa 4.3 m/s 17.7 mm 14.1° 1015.6 hPa 4.2 m/s 14.7° 1018.5 hPa 5.4 m/s 17.7 mm
13:00 14.7° 1016.1 hPa 4.8 m/s 17.9 mm 14.6° 1015.8 hPa 4.7 m/s 15.9° 1018.9 hPa 6.0 m/s 17.9 mm
16:00 14.5° 1015.7 hPa 4.5 m/s 17.9 mm 14.3° 1015.4 hPa 4.5 m/s 16.0° 1018.4 hPa 5.6 m/s 17.9 mm
19:00 14.1° 1015.3 hPa 4.3 m/s 17.9 mm 14.1° 1015.0 hPa 4.2 m/s 14.6° 1019.0 hPa 4.8 m/s 17.9 mm
22:00 13.1° 1015.7 hPa 3.9 m/s 17.9 mm 13.3° 1015.2 hPa 4.0 m/s 10.5° 1020.3 hPa 3.4 m/s 17.9 mm
 05:00     21:58    Daglengte: 16:58 Maandag 24 Jun
01:00 12.3° 1015.9 hPa 3.8 m/s 17.9 mm 12.5° 1015.5 hPa 3.8 m/s 10.2° 1020.7 hPa 3.4 m/s 17.9 mm
07:00 12.9° 1016.0 hPa 2.4 m/s 17.9 mm 13.0° 1015.5 hPa 2.3 m/s 11.7° 1021.0 hPa 4.0 m/s 17.9 mm
13:00 16.5° 1017.7 hPa 3.8 m/s 17.9 mm 16.6° 1017.4 hPa 3.6 m/s 15.4° 1021.2 hPa 6.1 m/s 17.9 mm
19:00 15.1° 1019.5 hPa 4.4 m/s 17.9 mm 15.1° 1019.4 hPa 4.4 m/s 14.9° 1020.8 hPa 3.9 m/s 17.9 mm
 05:01     21:58    Daglengte: 16:57 Dinsdag 25 Jun
01:00 12.1° 1022.1 hPa 3.4 m/s 17.9 mm 12.4° 1022.2 hPa 3.5 m/s 9.4° 1021.5 hPa 2.7 m/s 17.9 mm
07:00 11.8° 1024.8 hPa 3.4 m/s 17.9 mm 12.0° 1025.1 hPa 3.5 m/s 9.8° 1021.0 hPa 1.9 m/s 17.9 mm
13:00 16.6° 1026.6 hPa 4.8 m/s 18.1 mm 16.8° 1027.2 hPa 4.9 m/s 14.2° 1020.5 hPa 4.2 m/s 18.1 mm
19:00 15.9° 1027.3 hPa 2.5 m/s 19.8 mm 16.1° 1028.0 hPa 2.5 m/s 13.7° 1020.0 hPa 2.5 m/s 19.8 mm
 05:01     21:58    Daglengte: 16:57 Woensdag 26 Jun
01:00 10.8° 1029.5 hPa 3.0 m/s 20.8 mm 11.1° 1030.2 hPa 3.0 m/s 8.1° 1021.3 hPa 3.4 m/s 20.8 mm
07:00 10.5° 1029.6 hPa 1.2 m/s 20.8 mm 10.6° 1030.4 hPa 0.9 m/s 8.9° 1021.3 hPa 4.3 m/s 20.8 mm
13:00 17.8° 1028.5 hPa 2.6 m/s 22.0 mm 18.2° 1029.3 hPa 2.4 m/s 13.4° 1020.0 hPa 5.2 m/s 22.0 mm
19:00 17.1° 1021.7 hPa 1.1 m/s 0.9 mm
 05:02     21:58    Daglengte: 16:56 Donderdag 27 Jun
01:00 12.1° 1021.1 hPa 1.4 m/s 1.4 mm
07:00 12.0° 1019.2 hPa 2.2 m/s 1.0 mm
13:00 16.5° 1018.3 hPa 1.7 m/s 0.9 mm
19:00 16.5° 1016.9 hPa 1.8 m/s 1.5 mm
 05:02     21:58    Daglengte: 16:56 Vrijdag 28 Jun
01:00 11.7° 1017.0 hPa 1.8 m/s 0.8 mm
07:00 11.3° 1016.2 hPa 2.4 m/s 0.4 mm
13:00 16.1° 1016.4 hPa 1.8 m/s 0.4 mm
19:00 16.1° 1015.9 hPa 1.7 m/s 0.8 mm
 05:03     21:57    Daglengte: 16:54 Zaterdag 29 Jun
01:00 10.6° 1016.3 hPa 1.9 m/s 0.5 mm
07:00 11.3° 1015.5 hPa 1.9 m/s 0.2 mm
13:00 16.0° 1015.4 hPa 2.0 m/s 1.0 mm
19:00 15.6° 1014.7 hPa 2.1 m/s 1.5 mm
 05:04     21:57    Daglengte: 16:53 Zondag 30 Jun
01:00 11.0° 1015.1 hPa 2.2 m/s 0.8 mm
07:00 11.1° 1014.5 hPa 2.4 m/s 0.5 mm
13:00 15.7° 1014.8 hPa 2.4 m/s 0.7 mm
19:00 16.1° 1014.5 hPa 1.9 m/s 1.1 mm
 05:04     21:57    Daglengte: 16:53 Maandag 01 Jul
01:00 11.3° 1015.1 hPa 1.7 m/s 0.8 mm
07:00 11.3° 1014.8 hPa 1.8 m/s 0.7 mm
13:00 15.8° 1015.0 hPa 1.9 m/s 0.6 mm
19:00 15.8° 1014.3 hPa 2.2 m/s 1.0 mm
FMI Hirlam - 7.5 km EWN WRFDA - 12 km DWD ICON - 7 km GFS - 25 km Basiskaart






























































Updatetijd (Europe/Amsterdam) Resolutie Lengte Stap
FMI Hirlam 01:15, 07:15, 13:15, 19:15 7.5 km 49h 1h
EWN WRFDA 22:15, 04:15, 10:15, 16:15 12 km 73h 1h
DWD ICON 23:45, 05:45, 11:45, 17:45 7 km 75h 1h
GFS 20:30, 02:30, 08:30, 14:30 25 km 237h 3h
30+ mm
25-30 mm
20-25 mm
15-20 mm
10-15 mm
6-10 mm
4-6 mm
2-4 mm
1-2 mm
0.5-1 mm
0.2-0.5 mm
0.1-0.2 mm
30+ mm
25-30 mm
20-25 mm
15-20 mm
10-15 mm
6-10 mm
4-6 mm
2-4 mm
1-2 mm
0.5-1 mm
0.2-0.5 mm
0.1-0.2 mm
Sneeuwval
Natte sneeuw
Hagel
Vorst
30+ mm
25-30 mm
20-25 mm
15-20 mm
10-15 mm
6-10 mm
4-6 mm
2-4 mm
1-2 mm
0.5-1 mm
0.2-0.5 mm
0.1-0.2 mm
Sneeuwval
Natte sneeuw
Hagel
Vorst
Onweer
50 mm
40 mm
30 mm
26 mm
22 mm
18 mm
14 mm
10 mm
9 mm
8 mm
7 mm
6 mm
5 mm
4.5 mm
4 mm
3.5 mm
3 mm
2.5 mm
2 mm
1.5 mm
1 mm
0.8 mm
0.6 mm
0.4 mm
0.2 mm
0.05 mm
35°
30°
25°
20°
15°
10°
-5°
-10°
-15°
-20°
-25°
-30°
-35°
33> m/s
29 m/s
25 m/s
21 m/s
17 m/s
14 m/s
11 m/s
8 m/s
5 m/s
3 m/s
0 m/s
2600 J/kg
2400 J/kg
2200 J/kg
2000 J/kg
1800 J/kg
1600 J/kg
1400 J/kg
1200 J/kg
1000 J/kg
800 J/kg
600 J/kg
400 J/kg
200 J/kg
70 dBZ
65 dBZ
60 dBZ
55 dBZ
50 dBZ
45 dBZ
40 dBZ
35 dBZ
30 dBZ
25 dBZ
20 dBZ
15 dBZ
10 dBZ
5 dBZ
-1 K
-2 K
-3 K
-4 K
-5 K
-6 K
-7 K
-8 K
-9 K
950 m²/s²
900 m²/s²
850 m²/s²
800 m²/s²
750 m²/s²
700 m²/s²
650 m²/s²
600 m²/s²
550 m²/s²
500 m²/s²
450 m²/s²
400 m²/s²
350 m²/s²
300 m²/s²
250 m²/s²
200 m²/s²
150 m²/s²
100 m²/s²
46 m/s
44 m/s
42 m/s
40 m/s
38 m/s
36 m/s
34 m/s
32 m/s
30 m/s
28 m/s
26 m/s
24 m/s
22 m/s
20 m/s
16 m/s
12 m/s
8 m/s
4 m/s
30 m/s
28 m/s
26 m/s
24 m/s
22 m/s
20 m/s
18 m/s
16 m/s
14 m/s
12 m/s
10 m/s
8 m/s
6 m/s
4 m/s
2 m/s
3.0
2.8
2.6
2.4
2.2
2.0
1.8
1.6
1.4
1.2
1.0
0.8
0.6
0.4
0.2
15
14
13
12
11
10
9
8
7
6
5
4
3
2
1
90%
80%
70%
60%
50%
40%
30%
20%
10%
42
40
38
36
34
32
30
28
26
24
22
20
18
16
14
12
90+ cm
80-90 cm
70-80 cm
60-70 cm
50-60 cm
40-50 cm
30-40 cm
20-30 cm
10-20 cm
1-10 cm
Sneeuwval
Natte sneeuw
Regen
>120 mm
115 mm
110 mm
105 mm
100 mm
95 mm
90 mm
85 mm
80 mm
75 mm
70 mm
65 mm
60 mm
55 mm
50 mm
45 mm
45 mm
40 mm
35 mm
30 mm
25 mm
20 mm
15 mm
10 mm
5 mm
0.1 mm
960 hPa
880 hPa
800 hPa
720 hPa
640 hPa
560 hPa
584 gpdm
568 gpdm
552 gpdm
536 gpdm
520 gpdm
504 gpdm
488 gpdm
Extreem zwaar Noodweer Kans op onweer
15% 15% 5% 50% 15%

Dag




Kaart






35°
30°
25°
20°
15°
10°
-5°
-10°